Location: Newark
(35.8833°N, 14.5000°E)
Time: 14:09:32
(UTC+00:00)

Envisat - Visible Passes

Search period start: 20 October 2019 00:00
Search period end: 30 October 2019 00:00
Orbit: 764 x 766 km, 98.1° (Epoch: 20 October)

Date Brightness Start Highest point End Pass type
(mag) Time Alt. Az. Time Alt. Az. Time Alt. Az.
20 Oct 6.4 04:40:06 10° ENE 04:42:30 13° E 04:44:54 10° ESE visible
20 Oct 3.6 17:28:25 10° S 17:33:23 61° W 17:38:26 10° NNW visible
21 Oct 3.1 16:51:43 10° SSE 16:56:40 57° ENE 17:01:39 10° N visible
21 Oct 6.1 18:33:29 10° WSW 18:36:01 14° W 18:38:33 10° WNW visible
22 Oct 4.8 17:54:27 10° SSW 17:58:58 33° W 18:03:31 10° NNW visible
23 Oct 3.1 17:17:04 10° S 17:22:08 78° WSW 17:27:13 10° NNW visible
24 Oct 3.3 16:40:40 10° SE 16:45:27 44° ENE 16:50:16 10° N visible
24 Oct 5.7 18:21:15 10° SW 18:24:38 18° W 18:28:04 10° NW visible
25 Oct 4.3 17:42:53 10° S 17:47:40 42° W 17:52:28 10° NNW visible
26 Oct 2.9 17:05:49 10° SSE 17:10:52 82° ENE 17:15:57 10° N visible
27 Oct 3.6 16:29:43 10° SE 16:34:16 35° ENE 16:38:49 10° N visible
27 Oct 5.4 18:09:19 10° SSW 18:13:18 23° W 18:17:18 10° NW visible
28 Oct 6.2 04:42:42 10° ENE 04:45:30 15° E 04:48:19 10° SE visible
28 Oct 3.7 17:31:25 10° S 17:36:22 55° W 17:41:21 10° NNW visible
29 Oct 3.0 16:54:38 10° SSE 16:59:38 63° ENE 17:04:39 10° N visible
29 Oct 6.1 18:36:59 10° WSW 18:39:01 12° W 18:41:04 10° WNW visible
